CW9454 Weather Reports


time (UTC)temp
C
wind
direction
speed
KPH
gust
KPH
rain 1hr
cm
rain 24hr
cm
rain mn
cm
humidity
%
barometer
mb
20260504050024 8 238 0.0 0.0 0.00 0.00 0.00 68 1015.6
20260504045035 8 238 0.0 0.0 0.00 0.00 0.00 67 1015.7
20260504044028 8 238 0.0 0.0 0.00 0.00 0.00 67 1015.9
20260504043022 8 238 0.0 0.0 0.00 0.00 0.00 68 1015.8
20260504042034 8 238 0.0 0.0 0.00 0.00 0.00 68 1015.8
20260504041019 8 238 0.0 0.0 0.00 0.00 0.00 68 1015.8
20260504040036 8 238 0.0 0.0 0.00 0.00 0.00 68 1015.7
20260504035029 8 238 0.0 0.0 0.00 0.00 0.00 67 1015.7
20260504034013 8 240 0.0 0.0 0.00 0.00 0.00 66 1015.6
20260504033028 8 240 0.0 0.0 0.00 0.00 0.00 65 1015.3
20260504032022 8 240 0.0 0.0 0.00 0.00 0.00 64 1015.3
20260504031013 8 240 0.0 0.0 0.00 0.00 0.00 64 1015.1
20260504030050 8 240 0.0 0.0 0.00 0.00 0.00 64 1015.3
20260504025013 8 240 0.0 0.0 0.00 0.00 0.00 63 1015.2
20260504024056 9 240 0.0 0.0 0.00 0.00 0.00 63 1015.1
20260504023049 9 240 0.0 0.0 0.00 0.00 0.00 63 1015.1
20260504022024 10 240 0.0 0.0 0.00 0.00 0.00 61 1015.1
20260504021037 10 240 0.0 0.0 0.00 0.00 0.00 61 1015.0
20260504020024 10 240 0.0 0.0 0.00 0.00 0.00 61 1015.0
20260504015037 10 240 0.0 0.0 0.00 0.00 0.00 59 1014.8
20260504014022 10 240 0.0 0.0 0.00 0.00 0.00 58 1014.9
20260504013101 11 240 0.0 0.0 0.00 0.00 0.00 57 1014.9
20260504012026 11 240 0.0 0.0 0.00 0.00 0.00 56 1014.8
20260504011020 11 240 0.0 0.0 0.00 0.00 0.00 55 1014.7
20260504010056 12 240 0.0 0.0 0.00 0.00 0.00 53 1014.7
20260504005020 12 240 0.0 0.0 0.00 0.00 0.00 52 1014.6
20260504004014 13 240 0.0 0.0 0.00 0.00 0.00 51 1014.4
20260504003028 13 240 0.0 0.0 0.00 0.00 0.00 50 1014.4
20260504002024 13 240 0.0 0.0 0.00 0.00 0.00 47 1014.3
20260504001018 14 240 0.0 0.0 0.00 0.00 0.00 46 1014.3
20260504000027 15 240 0.0 0.0 0.00 0.00 0.00 43 1014.2
20260503235021 16 240 0.0 6.4 0.00 0.00 0.00 39 1014.1
20260503234035 16 97 0.0 4.8 0.00 0.00 0.00 35 1014.0
20260503233020 16 278 1.6 8.0 0.00 0.00 0.00 34 1013.8
20260503232013 16 267 0.0 8.0 0.00 0.00 0.00 33 1013.9
20260503231028 17 270 3.2 12.9 0.00 0.00 0.00 33 1014.0
20260503230013 17 257 3.2 11.3 0.00 0.00 0.00 33 1013.8
20260503225027 17 267 4.8 12.9 0.00 0.00 0.00 33 1013.9
20260503224021 17 264 3.2 16.1 0.00 0.00 0.00 33 1013.9
20260503223015 17 344 1.6 12.9 0.00 0.00 0.00 32 1013.9
20260503222030 17 230 4.8 24.1 0.00 0.00 0.00 31 1013.9
20260503221015 17 228 3.2 14.5 0.00 0.00 0.00 32 1014.0
20260503220033 17 236 6.4 14.5 0.00 0.00 0.00 31 1014.0
20260503215018 17 262 3.2 17.7 0.00 0.00 0.00 33 1014.0
20260503214031 17 241 6.4 17.7 0.00 0.00 0.00 31 1013.9
20260503213055 18 345 1.6 14.5 0.00 0.00 0.00 34 1013.9
20260503212019 17 333 8.0 20.9 0.00 0.00 0.00 33 1014.0
20260503211028 17 289 1.6 20.9 0.00 0.00 0.00 34 1014.0
20260503210045 17 256 4.8 12.9 0.00 0.00 0.00 34 1014.1
20260503205037 17 225 1.6 14.5 0.00 0.00 0.00 36 1014.0
20260503204029 17 264 3.2 16.1 0.00 0.00 0.00 35 1014.1
20260503203014 17 262 4.8 17.7 0.00 0.00 0.00 35 1014.2
20260503202037 17 272 4.8 22.5 0.00 0.00 0.00 35 1014.3
20260503201021 16 261 3.2 14.5 0.00 0.00 0.00 36 1014.3
20260503200038 17 291 0.0 14.5 0.00 0.00 0.00 37 1014.4
20260503195022 17 267 8.0 17.7 0.00 0.00 0.00 36 1014.7
20260503194036 16 277 4.8 19.3 0.00 0.00 0.00 38 1014.5
20260503193058 16 313 1.6 9.7 0.00 0.00 0.00 36 1014.8
20260503192020 16 254 6.4 29.0 0.00 0.00 0.00 37 1014.9
20260503191014 16 271 1.6 17.7 0.00 0.00 0.00 36 1015.1
20260503190053 17 215 6.4 17.7 0.00 0.00 0.00 38 1015.0
20260503185023 16 279 3.2 20.9 0.00 0.00 0.00 39 1015.1
20260503184016 16 252 4.8 27.4 0.00 0.00 0.00 37 1015.3
20260503183030 16 351 4.8 19.3 0.00 0.00 0.00 37 1015.6
20260503182015 15 248 0.0 22.5 0.00 0.00 0.00 36 1015.5
20260503181055 16 308 4.8 16.1 0.00 0.00 0.00 39 1015.8
20260503180022 15 300 8.0 19.3 0.00 0.00 0.00 38 1015.6
20260503175031 15 267 4.8 22.5 0.00 0.00 0.00 39 1015.8
20260503174017 15 344 3.2 19.3 0.00 0.00 0.00 38 1016.2
20260503173040 15 311 3.2 14.5 0.00 0.00 0.00 35 1016.1
20260503172025 15 236 0.0 19.3 0.00 0.00 0.00 40 1016.0
20260503171021 15 330 4.8 17.7 0.00 0.00 0.00 41 1016.0
20260503131027 8 286 3.2 12.9 0.00 0.00 0.00 57 1016.9
20260503081015 6 262 6.4 14.5 0.00 0.00 0.00 71 1013.9
20260503072040 7 235 4.8 14.5 0.00 0.00 0.00 69 1013.6
20260503071025 7 246 4.8 11.3 0.00 0.00 0.00 69 1013.5